DK1MAX-13 Weather Reports


Display with metric or nautical units.
time (UTC)temp
F
wind
direction
speed
MPH
gust
MPH
rain 1hr
in
rain 24hr
in
rain mn
in
humidity
%
barometer
mb
20210126141721 32 261 11.0 17.0 0.00 0.00 0.00 93 1016.7
20210126135802 33 256 12.0 18.0 0.00 0.00 0.00 88 1016.6
20210126134831 33 264 11.0 21.0 0.00 0.00 0.00 89 1016.5
20210126133740 32 258 14.0 30.0 0.00 0.00 0.00 89 1016.4
20210126132730 33 259 15.0 23.0 0.00 0.00 0.00 88 1016.3
20210126131743 33 266 14.0 21.0 0.00 0.00 0.00 87 1016.3
20210126130816 33 264 14.0 24.0 0.00 0.00 0.00 87 1016.2
20210126125800 33 274 13.0 19.0 0.00 0.00 0.00 87 1016.1
20210126123754 33 259 12.0 23.0 0.00 0.00 0.00 87 1016.0
20210126122735 33 260 12.0 23.0 0.00 0.00 0.00 87 1016.0
20210126121825 33 253 14.0 22.0 0.00 0.00 0.00 86 1015.9
20210126120814 33 256 11.0 23.0 0.00 0.00 0.00 86 1015.9
20210126115806 33 255 15.0 23.0 0.00 0.00 0.00 86 1015.9
20210126114747 33 269 15.0 21.0 0.00 0.00 0.00 86 1015.9
20210126110802 31 257 14.0 24.0 0.00 0.01 0.00 92 1015.9
20210126105830 31 261 14.0 25.0 0.00 0.01 0.00 94 1015.9
20210126104738 31 263 13.0 22.0 0.00 0.01 0.00 93 1015.9
20210126103832 32 267 12.0 19.0 0.00 0.01 0.00 89 1015.8
20210126102830 32 244 10.0 22.0 0.00 0.01 0.00 89 1015.7
20210126100808 32 256 15.0 22.0 0.00 0.01 0.00 88 1015.8
20210126095755 32 261 12.0 19.0 0.00 0.01 0.00 89 1015.7
20210126094739 32 241 9.0 15.0 0.00 0.01 0.00 89 1015.5
20210126093730 31 249 10.0 19.0 0.00 0.01 0.00 90 1015.4
20210126092720 31 246 13.0 19.0 0.00 0.01 0.00 90 1015.3
20210126091809 30 262 10.0 15.0 0.00 0.01 0.00 92 1015.2
20210126085747 29 242 7.0 10.0 0.00 0.01 0.00 99 1015.2
20210126084740 29 256 9.0 15.0 0.00 0.01 0.00 99 1015.1
20210126081806 30 258 13.0 21.0 0.00 0.01 0.00 95 1015.1
20210126080756 30 256 9.0 18.0 0.00 0.01 0.00 93 1014.8
20210126075751 30 271 9.0 24.0 0.00 0.01 0.00 91 1014.8
20210126074736 30 256 12.0 21.0 0.00 0.01 0.00 90 1014.9
20210126073728 30 253 12.0 21.0 0.00 0.01 0.00 89 1014.7
20210126072819 30 252 9.0 18.0 0.00 0.01 0.00 90 1014.6
20210126071815 30 254 10.0 16.0 0.00 0.01 0.00 92 1014.7
20210126070804 29 243 10.0 16.0 0.00 0.01 0.00 95 1014.7
20210126065747 30 254 9.0 15.0 0.00 0.01 0.00 93 1014.5
20210126064741 29 248 8.0 17.0 0.00 0.01 0.00 95 1014.5
20210126063725 29 264 10.0 16.0 0.00 0.01 0.00 96 1014.4
20210126062815 30 270 6.0 10.0 0.00 0.01 0.00 91 1014.3
20210126061808 30 236 8.0 11.0 0.00 0.01 0.00 90 1014.4
20210126060754 30 252 7.0 13.0 0.00 0.01 0.00 90 1014.4
20210126055747 30 255 6.0 9.0 0.00 0.01 0.00 90 1014.2
20210126054740 30 236 6.0 10.0 0.00 0.01 0.00 90 1014.3
20210126052814 29 245 6.0 10.0 0.00 0.01 0.00 91 1014.1
20210126051800 29 236 4.0 6.0 0.00 0.01 0.00 90 1014.1
20210126050759 29 243 5.0 9.0 0.00 0.01 0.00 90 1014.3
20210126045739 29 258 7.0 10.0 0.00 0.01 0.00 91 1014.0
20210126043721 29 242 4.0 7.0 0.00 0.01 0.00 92 1014.1
20210126041804 29 232 3.0 6.0 0.00 0.01 0.00 92 1014.0
20210126040749 29 239 3.0 6.0 0.00 0.01 0.00 93 1014.0
20210126035737 29 253 4.0 7.0 0.00 0.01 0.00 93 1014.0
20210126032809 29 255 4.0 6.0 0.00 0.01 0.00 91 1013.6
20210126030747 29 269 4.0 7.0 0.00 0.01 0.00 91 1013.5
20210126025737 29 271 4.0 7.0 0.00 0.01 0.00 90 1013.1
20210126024728 29 274 4.0 7.0 0.00 0.01 0.00 91 1013.2
20210126023818 29 261 5.0 8.0 0.00 0.01 0.00 91 1012.9
20210126022810 29 267 5.0 10.0 0.00 0.01 0.00 92 1013.0
20210126021756 28 265 5.0 10.0 0.00 0.01 0.00 94 1013.1
20210126020748 29 257 4.0 8.0 0.00 0.01 0.00 96 1012.8
20210126014827 29 260 4.0 6.0 0.00 0.01 0.00 97 1012.5
20210126012829 30 270 4.0 8.0 0.00 0.01 0.00 97 1012.5
20210126011758 31 273 4.0 7.0 0.00 0.01 0.00 98 1012.3
20210126010751 31 283 5.0 9.0 0.00 0.01 0.00 97 1012.1
20210126005738 31 281 6.0 9.0 0.00 0.01 0.00 97 1012.1
20210126004728 31 272 6.0 10.0 0.00 0.01 0.00 97 1012.0
20210126002809 31 271 3.0 7.0 0.00 0.01 0.00 96 1011.7
20210126001758 31 273 5.0 9.0 0.00 0.01 0.00 94 1011.6
20210125235739 31 261 4.0 7.0 0.00 0.01 0.00 94 1011.5
20210125234737 31 263 4.0 9.0 0.00 0.01 0.00 94 1011.4
20210125233719 32 262 4.0 10.0 0.00 0.01 0.00 93 1011.2
20210125232811 31 254 5.0 8.0 0.00 0.01 0.00 93 1011.2
20210125231803 31 253 5.0 8.0 0.00 0.01 0.00 94 1011.1
20210125230755 31 265 5.0 10.0 0.00 0.01 0.00 95 1011.0
20210125225739 31 265 6.0 10.0 0.00 0.01 0.01 94 1010.9
20210125223800 31 266 5.0 8.0 0.00 0.01 0.01 94 1010.5
20210125222810 31 256 5.0 8.0 0.00 0.01 0.01 94 1010.5
20210125221824 31 266 3.0 6.0 0.00 0.01 0.01 94 1010.4
20210125220752 31 276 3.0 7.0 0.00 0.01 0.01 94 1010.3
20210125215803 31 263 4.0 6.0 0.00 0.01 0.01 94 1009.9
20210125214729 31 255 4.0 8.0 0.00 0.01 0.01 94 1009.9
20210125213717 31 259 4.0 7.0 0.00 0.01 0.01 94 1009.8
20210125212813 31 260 3.0 8.0 0.00 0.01 0.01 94 1009.7
20210125211759 31 267 4.0 7.0 0.00 0.01 0.01 95 1009.6
20210125210750 31 257 5.0 8.0 0.00 0.01 0.01 96 1009.6
20210125205802 31 266 5.0 8.0 0.00 0.01 0.01 97 1009.4
20210125204735 31 259 5.0 8.0 0.00 0.01 0.01 98 1009.5
20210125202813 31 271 4.0 8.0 0.00 0.01 0.01 99 1008.9
20210125201903 31 269 5.0 9.0 0.00 0.01 0.01 99 1009.0
20210125200750 31 277 4.0 7.0 0.00 0.01 0.01 99 1008.7
20210125195740 30 266 3.0 6.0 0.00 0.01 0.01 99 1008.5
20210125194731 30 258 2.0 3.0 0.00 0.01 0.01 99 1008.3
20210125193749 30 259 2.0 3.0 0.00 0.01 0.01 99 1008.1
20210125192816 30 250 2.0 3.0 0.00 0.01 0.01 99 1007.8
20210125190806 30 253 2.0 3.0 0.00 0.01 0.01 99 1007.5
20210125184755 30 223 1.0 2.0 0.00 0.01 0.01 98 1007.2
20210125183721 30 0.0 0.0 0.00 0.01 0.01 98 1007.0
20210125182831 30 0.0 0.0 0.00 0.01 0.01 98 1007.0
20210125181803 30 0.0 0.0 0.00 0.01 0.01 98 1006.7
20210125173827 30 240 0.0 1.0 0.00 0.01 0.01 98 1006.3
20210125171752 30 242 0.0 1.0 0.00 0.01 0.01 97 1006.0
20210125170756 30 242 1.0 1.0 0.00 0.01 0.01 97 1005.8
20210125165800 30 0.0 0.0 0.00 0.01 0.01 97 1005.7
20210125164749 30 0.0 0.0 0.00 0.01 0.01 96 1005.5
20210125163837 30 0.0 0.0 0.00 0.01 0.01 96 1005.5
20210125161800 30 243 0.0 1.0 0.00 0.01 0.01 95 1005.2
20210125160739 30 0.0 0.0 0.00 0.01 0.01 95 1005.2
20210125154819 30 247 1.0 2.0 0.00 0.01 0.01 95 1004.8
20210125153837 30 249 1.0 2.0 0.00 0.01 0.01 95 1004.5
20210125152817 30 0.0 1.0 0.00 0.01 0.01 94 1004.4
20210125145837 30 266 2.0 2.0 0.00 0.01 0.01 94 1004.0
20210125144804 30 279 2.0 3.0 0.00 0.01 0.01 94 1003.8
20210125143758 30 276 4.0 6.0 0.00 0.01 0.01 93 1003.8
20210125142740 30 267 4.0 7.0 0.00 0.01 0.01 93 1003.7